FW3054 Weather Reports


time (UTC)temp
C
wind
direction
speed
KPH
gust
KPH
rain 1hr
cm
rain 24hr
cm
rain mn
cm
humidity
%
barometer
mb
20260904235516 28 0.0 0.0 0.00 0.00 0.00 71 1017.9
20260904234516 28 0.0 0.0 0.00 0.00 0.00 71 1017.9
20260904233517 28 0.0 0.0 0.00 0.00 0.00 69 1017.9
20260904232517 29 0.0 0.0 0.00 0.00 0.00 70 1017.8
20260904231517 29 0.0 0.0 0.00 0.00 0.00 69 1017.7
20260904230517 29 0.0 0.0 0.00 0.00 0.00 69 1017.7
20260904225516 30 0.0 0.0 0.00 0.00 0.00 67 1017.7
20260904224516 30 0.0 0.0 0.00 0.00 0.00 67 1017.6
20260904223537 30 0.0 0.0 0.00 0.00 0.00 66 1017.7
20260904222517 31 0.0 1.6 0.00 0.00 0.00 65 1017.9
20260904221516 31 0.0 1.6 0.00 0.00 0.00 62 1017.9
20260904220516 31 0.0 1.6 0.00 0.00 0.00 60 1017.9
20260904215557 31 0.0 1.6 0.00 0.00 0.00 60 1018.0
20260904214516 31 0.0 1.6 0.00 0.00 0.00 60 1018.2
20260904213517 32 0.0 1.6 0.00 0.00 0.00 59 1018.0
20260904212516 32 0.0 1.6 0.00 0.00 0.00 59 1018.1
20260904211516 32 0.0 1.6 0.00 0.00 0.00 59 1018.0
20260904210516 32 0.0 1.6 0.00 0.00 0.00 58 1018.1
20260904205516 33 0.0 1.6 0.00 0.00 0.00 59 1018.2
20260904204516 33 0.0 1.6 0.00 0.00 0.00 56 1018.3
20260904203536 33 0.0 1.6 0.00 0.00 0.00 55 1018.2
20260904202536 32 0.0 3.2 0.00 0.00 0.00 56 1018.3
20260904201516 32 135 1.6 4.8 0.00 0.00 0.00 61 1018.3
20260904200516 31 135 1.6 3.2 0.00 0.00 0.00 60 1018.4
20260904195556 32 135 1.6 3.2 0.00 0.00 0.00 59 1018.6
20260904194516 32 135 1.6 3.2 0.00 0.00 0.00 63 1019.0
20260904193516 32 0.0 0.0 0.00 0.00 0.00 63 1018.9
20260904192516 32 0.0 1.6 0.00 0.00 0.00 60 1019.5
20260904191516 33 158 1.6 3.2 0.00 0.00 0.00 55 1019.6
20260904190516 33 0.0 3.2 0.00 0.00 0.00 56 1019.6
20260904185517 33 23 3.2 8.0 0.00 0.00 0.00 55 1019.6
20260904184516 32 0.0 1.6 0.00 0.00 0.00 53 1019.5
20260904183516 33 0.0 3.2 0.00 0.00 0.00 54 1019.8
20260904182516 33 23 1.6 6.4 0.00 0.00 0.00 53 1019.9
20260904181516 33 23 1.6 6.4 0.00 0.00 0.00 51 1019.9
20260904180516 32 23 3.2 6.4 0.00 0.00 0.00 54 1019.9
20260904175516 32 23 1.6 4.8 0.00 0.00 0.00 55 1020.1
20260904174516 32 23 3.2 4.8 0.00 0.00 0.00 55 1020.2
20260904173516 32 23 1.6 6.4 0.00 0.00 0.00 56 1020.3
20260904172516 32 23 1.6 4.8 0.00 0.00 0.00 57 1020.6
20260904171516 32 23 1.6 3.2 0.00 0.00 0.00 57 1020.8
20260904170537 32 23 1.6 3.2 0.00 0.00 0.00 58 1020.9
20260904165516 31 23 3.2 4.8 0.00 0.00 0.00 59 1020.9
20260904164517 31 23 1.6 3.2 0.00 0.00 0.00 60 1021.0
20260904163536 31 23 3.2 9.7 0.00 0.00 0.00 61 1021.1
20260904162536 30 23 1.6 4.8 0.00 0.00 0.00 62 1021.2
20260904161536 30 23 3.2 8.0 0.00 0.00 0.00 63 1021.2
20260904160516 30 23 1.6 6.4 0.00 0.00 0.00 65 1021.3
20260904155516 29 23 1.6 8.0 0.00 0.00 0.00 67 1021.3
20260904154516 28 0.0 0.0 0.00 0.00 0.00 73 1021.3
20260904153516 28 0.0 0.0 0.00 0.00 0.00 73 1021.2
20260904152516 27 0.0 1.6 0.00 0.00 0.00 73 1021.2
20260904151516 27 0.0 0.0 0.00 0.00 0.00 75 1021.1
20260904150536 27 0.0 1.6 0.00 0.00 0.00 77 1021.2
20260904145516 26 0.0 1.6 0.00 0.00 0.00 78 1021.2
20260904144516 26 0.0 0.0 0.00 0.00 0.00 82 1021.2
20260904143516 25 0.0 1.6 0.00 0.00 0.00 83 1021.1
20260904142536 25 0.0 0.0 0.00 0.00 0.00 85 1021.2
20260904141556 24 0.0 0.0 0.00 0.00 0.00 86 1021.2
20260904140536 23 0.0 0.0 0.00 0.00 0.00 88 1021.1
20260904135516 23 0.0 1.6 0.00 0.00 0.00 89 1021.1
20260904134516 22 0.0 1.6 0.00 0.00 0.00 90 1021.1
20260904133516 22 0.0 0.0 0.00 0.00 0.00 89 1020.8
20260904132516 22 0.0 0.0 0.00 0.00 0.00 89 1021.0
20260904131515 21 0.0 0.0 0.00 0.00 0.00 88 1020.8
20260904130516 21 0.0 0.0 0.00 0.00 0.00 87 1020.8
20260904125556 21 0.0 0.0 0.00 0.00 0.00 86 1020.7
20260904124536 21 0.0 0.0 0.00 0.00 0.00 85 1020.8
20260904123516 20 0.0 0.0 0.00 0.00 0.00 83 1020.6
20260904122516 20 0.0 0.0 0.00 0.00 0.00 82 1020.7
20260904121516 20 0.0 0.0 0.00 0.00 0.00 81 1020.6
20260904120515 20 0.0 0.0 0.00 0.00 0.00 82 1020.5
20260904115538 20 0.0 0.0 0.00 0.00 0.00 83 1020.7
20260904114515 20 0.0 0.0 0.00 0.00 0.00 84 1020.8
20260904113516 20 0.0 0.0 0.00 0.00 0.00 85 1020.7
20260904112515 20 0.0 0.0 0.00 0.00 0.00 85 1020.8
20260904111556 20 0.0 0.0 0.00 0.00 0.00 85 1020.5
20260904110515 20 0.0 0.0 0.00 0.00 0.00 86 1020.2
20260904105515 20 0.0 0.0 0.00 0.00 0.00 87 1020.4
20260904104515 20 0.0 0.0 0.00 0.00 0.00 87 1020.4
20260904103516 20 0.0 0.0 0.00 0.00 0.00 87 1020.3
20260904102515 20 0.0 0.0 0.00 0.00 0.00 87 1020.2
20260904101515 20 0.0 0.0 0.00 0.00 0.00 87 1020.1
20260904100515 20 0.0 0.0 0.00 0.00 0.00 87 1020.3
20260904095515 20 0.0 0.0 0.00 0.00 0.00 85 1020.3
20260904094515 20 0.0 0.0 0.00 0.00 0.00 86 1020.4
20260904093515 20 0.0 0.0 0.00 0.00 0.00 86 1020.4
20260904092515 20 0.0 0.0 0.00 0.00 0.00 86 1020.5
20260904091515 20 0.0 0.0 0.00 0.00 0.00 86 1020.5
20260904090515 20 0.0 0.0 0.00 0.00 0.00 86 1020.6
20260904085555 20 0.0 0.0 0.00 0.00 0.00 87 1020.9
20260904084515 20 0.0 0.0 0.00 0.00 0.00 87 1020.7
20260904083515 20 0.0 0.0 0.00 0.00 0.00 87 1020.7
20260904082515 20 0.0 0.0 0.00 0.00 0.00 88 1020.4
20260904081517 20 0.0 0.0 0.00 0.00 0.00 88 1020.4
20260904080515 20 0.0 0.0 0.00 0.00 0.00 88 1020.4
20260904075517 20 0.0 0.0 0.00 0.00 0.00 88 1020.2
20260904074535 20 0.0 0.0 0.00 0.00 0.00 89 1020.3
20260904073517 20 0.0 0.0 0.00 0.00 0.00 89 1020.2
20260904072517 21 0.0 0.0 0.00 0.00 0.00 89 1020.4
20260904071537 21 0.0 0.0 0.00 0.00 0.00 89 1020.5
20260904070517 21 0.0 0.0 0.00 0.00 0.00 89 1020.6
20260904065537 21 0.0 0.0 0.00 0.00 0.00 89 1020.5
20260904064517 21 0.0 0.0 0.00 0.00 0.00 89 1020.6
20260904063517 21 0.0 0.0 0.00 0.00 0.00 89 1020.7
20260904062537 21 0.0 0.0 0.00 0.00 0.00 89 1020.8
20260904061557 21 0.0 0.0 0.00 0.00 0.00 89 1020.9
20260904060517 21 0.0 0.0 0.00 0.00 0.00 89 1021.0
20260904055517 21 0.0 0.0 0.00 0.00 0.00 89 1021.2
20260904054517 21 0.0 0.0 0.00 0.00 0.00 89 1021.4
20260904053517 21 0.0 0.0 0.00 0.00 0.00 89 1021.5
20260904052537 21 0.0 0.0 0.00 0.00 0.00 89 1021.2
20260904051517 21 0.0 0.0 0.00 0.00 0.00 89 1021.3
20260904050517 22 0.0 0.0 0.00 0.00 0.00 89 1021.3
20260904045517 22 0.0 0.0 0.00 0.00 0.00 89 1021.4
20260904044517 22 0.0 0.0 0.00 0.00 0.00 89 1021.4
20260904043517 22 0.0 0.0 0.00 0.00 0.00 89 1021.4
20260904042517 22 0.0 0.0 0.00 0.00 0.00 88 1021.3
20260904041517 22 0.0 0.0 0.00 0.00 0.00 88 1021.5
20260904040517 22 0.0 0.0 0.00 0.00 0.00 88 1021.6
20260904035519 22 0.0 0.0 0.00 0.00 0.00 87 1021.2
20260904034517 23 0.0 0.0 0.00 0.00 0.00 87 1021.2
20260904033517 23 0.0 0.0 0.00 0.00 0.00 87 1021.2
20260904032517 23 0.0 0.0 0.00 0.00 0.00 86 1021.1
20260904031517 23 0.0 0.0 0.00 0.00 0.00 86 1021.0
20260904030537 23 0.0 0.0 0.00 0.00 0.00 86 1021.0
20260904025517 23 0.0 0.0 0.00 0.00 0.00 86 1021.0
20260904024537 23 0.0 0.0 0.00 0.00 0.00 85 1021.0
20260904023517 23 0.0 0.0 0.00 0.00 0.00 85 1021.1
20260904022517 23 0.0 0.0 0.00 0.00 0.00 85 1021.0
20260904021517 23 0.0 0.0 0.00 0.00 0.00 84 1021.1
20260904020517 24 0.0 0.0 0.00 0.00 0.00 83 1021.0
20260904015537 24 0.0 0.0 0.00 0.00 0.00 82 1020.6
20260904014517 25 0.0 0.0 0.00 0.00 0.00 81 1020.5
20260904013517 25 0.0 0.0 0.00 0.00 0.00 81 1020.3
20260904012517 25 0.0 0.0 0.00 0.00 0.00 80 1020.0
20260904011517 25 0.0 0.0 0.00 0.00 0.00 80 1019.9
20260904010517 25 0.0 0.0 0.00 0.00 0.00 79 1019.7
20260904005517 26 0.0 0.0 0.00 0.00 0.00 79 1019.5
20260904004516 26 0.0 0.0 0.00 0.00 0.00 78 1019.4
20260904003517 26 0.0 0.0 0.00 0.00 0.00 76 1019.1
20260904002517 26 0.0 0.0 0.00 0.00 0.00 75 1019.1
20260904001517 26 0.0 0.0 0.00 0.00 0.00 75 1019.0
20260904000517 27 0.0 0.0 0.00 0.00 0.00 75 1018.9